sat.trackr.live / text

‹ back to catalog

STARLINK-6060

NORAD 56794 · 2023-078AD

PAYLOAD ACTIVE UNKNOWN

§ Identity

Operator
Country
US
Launch date
2023-05-31
Launch site
AFWTR
Launch vehicle
Mass (kg)
RCS (m²)

Purposes: comms

External: N2YO · Heavens-Above · Gunter

§ Orbital elements

Epoch: 2026-05-25T03:03:22.976064Z

Period
96.11 min
Inclination
69.9986°
Eccentricity
0.0003925
Mean motion
14.98330461 rev/d
Perigee alt
569.3 km
Apogee alt
574.8 km
Semi-major
6,950.2 km
B*
1.2534e-4
RAAN
131.7102°
Arg perigee
266.9358°
Mean anomaly
93.1352°
Rev number
16,462

§ Raw data

STARLINK-60601 56794U 23078AD  26145.12734926  .00001403  00000+0  12534-3 0  99982 56794  69.9986 131.7102 0003925 266.9358  93.1352 14.98330461164624

JSON: /api/v1/satellites/56794 · /tle

For live sub-satellite position, see the globe view (requires WebGL).

§ Visibility from observer

Set your observer location to see the next 7 days of passes ≥ 10°. The values pass through the URL so the page stays shareable.

No JS? Fill the form by hand. The geolocation button needs JavaScript.